Miscellaneous Local Product
Issued by NWS Hastings, NE

Home | Current Version | Previous Version | Graphics & Text | Print | Product List | Glossary On
Versions: 1 2 3 4 5 6 7 8 9 10 11 12 13 14 15 16 17 18 19 20 21 22 23 24 25 26 27 28 29 30 31 32 33 34 35 36 37 38 39 40 41 42 43 44 45 46 47 48 49 50
000
AXUS43 KGID 310502
MISGRI

GID CWA HOURLY WEATHER ROUNDUP
NATIONAL WEATHER SERVICE HASTINGS NE
1200 AM CDT MON AUG 31 2015

NOTE: "FAIR" INDICATES FEW OR NO CLOUDS BELOW 12,000 FEET WITH NO
SIGNIFICANT WEATHER AND/OR OBSTRUCTIONS TO VISIBILITY.

...SOUTH CENTRAL NEBRASKA...

CITY           SKY/WX    TMP DP  RH WIND       PRES   REMARKS
GRAND ISLAND   FAIR      67  64  90 S14       29.96S
HASTINGS       CLEAR     66  63  90 S10       29.96S
KEARNEY        CLEAR     64  61  88 S13       29.95F
ORD            CLEAR     67  63  87 S9        29.91S
YORK           MOCLDY    64  64 100 S7        29.97S
AURORA         CLEAR     66  65  97 S7        29.96F
LEXINGTON      CLEAR     68  64  86 S13       29.94F
HOLDREGE       CLEAR     65  62  91 SE12      29.96S
HEBRON         CLEAR     65  63  93 SE5       29.97S

...NEBRASKA PANHANDLE...

CITY           SKY/WX    TMP DP  RH WIND       PRES   REMARKS
CHADRON        PTCLDY    70  49  47 CALM      29.81S
ALLIANCE       CLEAR     74  49  41 S14       29.87S
SCOTTSBLUFF    CLOUDY    75  51  43 MISG      29.88R
SIDNEY         CLEAR     71  49  45 SW5       29.97R

...WESTERN AND NORTH CENTRAL NEBRASKA...

CITY           SKY/WX    TMP DP  RH WIND       PRES   REMARKS
VALENTINE      CLEAR     74  58  57 S18G29    29.83R
AINSWORTH      CLEAR     71  60  69 S18G28    29.86S
ONEILL         PTCLDY    68  66  91 S15G23    29.89S
BROKEN BOW     CLEAR     68  62  81 S14G25    29.93S
IMPERIAL       CLEAR     73  40  30 S14       29.93S
NORTH PLATTE   CLEAR     69  56  62 SE10      29.91S
MCCOOK         CLEAR     68  50  52 SE8       29.93F

...EASTERN NEBRASKA...

CITY           SKY/WX    TMP DP  RH WIND       PRES   REMARKS
NORFOLK        PTCLDY    68  65  90 S13       29.93S
TEKAMAH        FOG       62  61  96 SW3       29.96R VSB 1
COLUMBUS       CLEAR    N/A N/A N/A S5        29.96S
ALBION         PTCLDY    66  63  89 SE8       29.94S
OMAHA EPPLEY   PTCLDY    69  67  93 S7        29.97S
OFFUTT AFB     CLEAR     60  59  99 E3        29.97R
MILLARD        CLEAR     67  66  96 CALM      29.97R FOG
LINCOLN        CLEAR     66  64  93 S7        29.97F
NEBRASKA CITY  PTCLDY    70  68  94 SE5       29.99S
BEATRICE       CLEAR     67  64  93 SE3       29.98S
FALLS CITY     PTCLDY    68  67  96 S3        29.97R FOG

...NORTHERN KANSAS...

CITY           SKY/WX    TMP DP  RH WIND       PRES   REMARKS
GOODLAND       CLEAR     65  46  50 S12       29.98S
HILL CITY      CLEAR     70  59  68 SE6       29.95F
NORTON         CLEAR     64  55  72 SE7       29.95S
PHILLIPSBURG   CLEAR     66  66 100 E6        29.96S
SMITH CENTER   CLEAR     66  63  88 SE9       29.97S
HAYS           CLEAR     66  55  68 SE9       29.96F
RUSSELL        CLEAR     68  62  81 SE9       29.95F
CONCORDIA      CLEAR     67  65  93 SE9       29.97S
SALINA         CLEAR     70  64  81 SE6       29.95F
TOPEKA         PTCLDY    69  68  96 CALM      29.96F



USA.gov is the U.S. government's official web portal to all federal, state and local government web resources and services.